Regional Weather Roundup
Issued by NWS

Home | Current Version | Previous Version | Text Only | Print | Product List | Glossary On
Versions: 1 2 3 4 5 6 7 8 9 10 11 12 13 14 15 16 17 18 19 20 21 22 23 24 25 26 27
000
ASPQ40 PGUM 181512
RWRPQ
WEATHER ROUNDUP FOR THE MARIANAS AND MICRONESIA
NATIONAL WEATHER SERVICE TIYAN GU
100 AM CHST THU JAN 19 2017

GUZ001>004-181600-
MARIANA ISLANDS-

CITY           SKY/WX    TMP DP  RH WIND       PRES   REMARKS
GUAM AIRPORT   LGT RAIN  75  75 100 NE18G26   29.98S FOG
ANDERSEN AFB   MOCLDY    75  73  94 E21G29    29.99F
ROTA AIRPORT   NOT AVBL
TINIAN AP      NOT AVBL
SAIPAN AP      MOCLDY    75  73  94 NE18G26   30.01S

$$

PMZ161-181600-
REPUBLIC OF PALAU-

CITY           SKY/WX    TMP DP  RH WIND       PRES   REMARKS
KOROR AP       MOCLDY    77  77 100 E7        29.87S
KOROR WSO      CLOUDY    79  77  94 NE6       29.88S

$$

PMZ171>174-181600-
FEDERATED STATES OF MICRONESIA-

CITY           SKY/WX    TMP DP  RH WIND       PRES   REMARKS
YAP AIRPORT    MOCLDY    81  73  78 VRB7      29.89S
CHUUK AP       CLOUDY    82  77  83 NE10      29.85F HX  91
POHNPEI AP     NOT AVBL
POHNPEI WSO    PTCLDY    82  70  65 NE7       29.89F
KOSRAE AP      NOT AVBL

$$

PMZ181-181600-
REPUBLIC OF THE MARSHALL ISLANDS-

CITY           SKY/WX    TMP DP  RH WIND       PRES   REMARKS
KWAJALEIN AP   MOCLDY    81  70  69 NE20G28   29.82F
MAJURO AP      NOT AVBL
MAJURO WSO     MOCLDY    82  72  69 NE16      29.77F

$$





USA.gov is the U.S. government's official web portal to all federal, state and local government web resources and services.